Wind_Speed
51 58 65 62 60 59 59 60 59 59 57 54 55 59 60 61 59 63 64 67 65 56 50 51 44 42 41 39 41 39 36 35 32 31 31 30 29 29 30 32 33 33 35 38 40 42 40 42 45 48 51 54 56 58
56 60 64 62 58 55 55 57 59 60 56 55 57 62 62 59 65 66 61 62 62 53 53 52 47 45 42 38 41 39 37 36 34 32 30 30 32 33 35 37 39 40 41 43 46 46 45 46 50 55 56 58 59 64
61 62 58 57 54 53 55 57 58 56 54 56 61 62 60 63 66 64 66 63 60 56 53 48 45 43 40 39 41 40 40 38 34 31 33 34 34 36 37 39 42 44 46 47 47 49 51 53 55 56 58 60 64 67
60 60 59 56 53 51 52 52 52 54 57 60 62 60 60 63 65 64 68 60 57 55 52 47 46 42 39 38 40 42 40 37 35 35 34 35 36 37 38 40 43 47 47 47 48 52 51 56 58 63 67 69 71 73
58 58 56 51 48 49 53 54 55 62 63 62 59 58 61 63 64 62 64 58 56 55 50 47 45 44 42 41 41 42 42 41 40 39 37 36 38 38 38 40 47 47 47 48 50 54 58 63 67 70 72 73 75 79
51 52 50 49 48 52 54 58 66 64 60 59 55 51 58 65 63 59 60 55 51 52 50 47 45 44 44 44 44 43 44 43 42 40 39 40 43 41 41 46 53 56 57 57 59 63 66 66 70 72 74 77 80 84
49 48 47 47 51 53 57 61 62 59 55 52 50 53 61 62 59 56 57 55 48 50 51 51 49 47 47 48 47 47 46 46 45 45 46 47 49 48 50 54 61 63 64 65 67 69 72 74 75 77 80 84 88 92
46 45 45 47 50 55 59 60 57 54 56 52 50 51 55 59 57 51 55 56 50 50 49 50 50 52 51 50 50 51 51 51 50 50 51 52 52 55 58 65 67 69 71 71 73 75 76 77 80 84 88 91 94 96
53 54 50 53 55 59 61 60 58 53 52 50 48 46 56 56 55 51 51 52 52 52 49 50 52 53 51 51 50 50 50 51 53 55 56 56 57 61 66 69 70 71 72 72 74 78 81 85 88 91 94 95 95 96
44 45 48 53 56 57 58 58 57 52 48 48 43 50 60 60 55 51 47 51 51 51 48 50 49 50 50 52 52 51 51 51 52 56 60 61 63 68 69 68 71 74 76 79 82 84 87 90 93 93 94 96 98 98
50 52 56 56 57 57 57 54 58 53 45 41 40 49 56 58 58 53 51 49 49 49 49 50 51 52 54 54 55 55 55 57 57 59 62 61 63 70 74 78 80 82 84 87 89 91 91 93 96 95 95 95 96 99
56 59 59 52 53 53 55 55 53 51 45 43 41 42 51 57 61 54 52 52 55 55 55 58 59 58 58 60 59 58 59 58 57 60 65 68 75 79 81 83 84 85 86 88 91 93 93 92 92 94 96 100 103 106
60 61 57 56 53 53 50 49 47 44 41 38 39 37 39 49 57 59 60 58 58 59 59 60 60 60 61 62 62 63 64 67 71 71 74 78 80 82 83 84 87 88 89 90 90 90 92 95 98 101 104 107 110 112
62 60 57 55 55 54 53 50 47 44 42 41 38 38 38 43 47 54 58 61 62 62 64 67 68 67 68 69 69 69 69 71 70 73 76 79 80 82 84 85 85 86 88 89 91 95 98 102 104 107 110 114 117 120
58 57 54 51 49 48 49 47 47 49 47 44 43 42 43 46 49 52 55 56 55 57 58 61 62 65 69 72 74 75 75 75 75 77 77 78 79 81 83 85 87 89 92 95 98 102 105 108 111 114 117 119 121 123
61 60 57 55 52 51 50 48 49 49 51 52 50 49 48 48 48 49 51 52 54 55 57 59 60 62 63 65 67 69 71 72 73 75 78 80 83 85 88 92 95 98 100 103 105 108 112 115 118 119 117 117 117 116
61 61 60 58 55 54 55 55 53 53 54 53 52 52 52 53 54 55 57 59 60 61 63 63 64 67 68 70 71 73 75 77 80 83 86 89 91 94 98 101 104 106 108 111 114 115 116 116 115 113 113 112 112 112
56 56 61 60 60 60 59 59 58 59 60 57 57 58 59 60 61 62 63 64 65 67 68 69 71 73 75 78 80 82 84 87 89 91 93 95 98 102 105 107 108 110 111 113 115 114 114 114 113 110 111 112 110 108
52 53 55 56 58 58 59 60 60 59 58 60 62 62 63 65 66 67 69 68 69 71 73 75 77 80 83 85 86 87 89 93 95 97 99 101 102 104 106 107 108 109 110 112 112 111 110 110 111 111 108 105 102 98
54 54 54 54 54 55 55 56 56 57 58 60 63 62 62 64 67 69 71 72 74 77 78 80 83 84 86 88 90 91 94 96 97 99 101 102 103 104 106 108 109 110 110 111 112 112 109 105 102 100 97 96 94 91
51 54 54 54 55 56 58 61 60 60 62 62 63 65 65 66 67 68 71 72 73 74 77 81 82 83 85 89 92 93 93 93 96 99 100 100 101 103 107 107 106 105 107 106 103 102 99 95 95 93 90 87 84 81
46 47 49 51 52 52 52 54 56 56 58 60 61 62 64 66 68 70 70 68 70 74 76 77 80 82 84 87 89 91 94 96 96 98 97 98 101 101 101 100 99 98 98 95 93 93 90 88 86 82 80 79 78 77
50 51 53 54 54 54 57 58 59 60 61 64 66 67 69 70 71 71 69 72 74 75 78 79 82 84 87 89 90 91 92 92 91 90 90 91 90 90 90 90 90 89 88 87 86 84 82 79 77 76 75 74 73 71
53 53 54 56 57 58 59 60 62 62 65 66 67 67 68 70 72 72 73 75 78 80 81 82 82 84 85 86 87 87 85 83 83 83 83 83 83 84 85 84 83 81 80 79 77 75 74 73 72 71 69 69 68 67
55 56 57 58 60 61 61 61 62 64 64 66 69 72 72 71 71 73 75 78 79 79 80 81 80 79 78 77 77 77 77 78 78 79 80 80 81 79 78 77 76 74 73 72 72 72 70 68 67 66 65 64 64 63
55 57 59 58 60 62 61 62 62 62 63 63 64 66 67 68 69 68 70 71 72 74 74 73 72 71 71 71 72 73 73 74 73 74 74 73 73 72 72 71 70 69 69 68 68 68 67 65 64 64 62 61 60 60
54 55 58 59 59 59 59 58 58 60 60 61 62 63 64 64 64 64 64 65 66 68 69 69 69 68 68 68 67 67 67 68 67 68 68 68 68 67 67 67 66 65 63 63 62 61 61 61 61 61 60 58 58 58
54 55 57 57 57 56 57 56 56 57 57 57 57 59 59 60 61 61 62 64 66 66 66 66 65 63 62 62 62 63 63 64 64 63 63 63 63 63 63 62 61 60 59 58 58 58 57 57 57 57 57 58 58 58
50 51 52 53 53 53 53 53 54 54 54 53 53 54 55 56 56 56 57 57 58 58 58 58 58 59 59 59 59 59 60 60 60 60 60 60 59 59 58 57 56 56 56 55 54 54 54 54 55 56 57 57 57 57
45 46 48 49 49 50 49 48 48 47 46 46 47 48 49 50 51 52 52 52 53 55 55 56 56 56 56 56 56 57 57 58 57 57 57 56 56 55 54 54 54 54 53 52 52 51 52 52 53 53 53 53 52 52
40 41 41 42 42 43 43 43 42 43 44 44 45 46 47 47 48 49 49 50 51 51 52 53 53 54 54 54 54 54 54 54 54 53 53 53 52 52 52 51 51 51 51 51 51 51 50 49 48 48 47 47 47 48
36 38 38 39 40 41 41 42 43 44 44 45 45 44 44 44 45 45 46 47 48 49 49 50 50 51 51 51 51 50 50 50 50 49 50 50 50 50 50 49 49 50 50 49 49 49 48 48 47 46 46 46 45 44
34 35 36 36 37 37 38 39 39 40 41 41 40 39 39 41 43 44 45 45 45 45 45 46 46 46 47 47 48 48 49 49 49 49 49 49 48 48 49 49 49 49 50 50 48 47 47 46 45 45 44 43 41 40
Wind_Direction
157 153 150 150 151 155 160 165 172 177 176 175 179 180 182 184 187 185 183 185 185 183 188 192 195 197 203 210 211 213 216 218 221 225 230 234 240 245 250 255 258 258 259 263 267 269 270 272 275 281 283 283 284 288
148 148 149 149 151 155 163 171 175 176 176 177 179 180 182 185 184 184 181 185 187 190 190 195 198 199 205 211 212 214 218 223 228 233 237 240 245 250 255 260 263 265 266 266 268 273 274 276 277 280 285 293 291 288
146 149 151 154 156 164 171 173 176 177 177 179 179 182 184 183 185 183 186 187 188 188 192 197 200 203 209 214 214 216 221 226 231 240 245 248 250 254 257 261 266 268 270 273 277 280 280 283 284 287 288 287 288 290
149 152 155 161 166 172 175 173 173 175 180 181 181 183 185 184 185 187 189 189 191 189 194 199 201 206 211 216 218 220 222 227 234 242 249 252 254 257 260 263 267 268 272 276 280 281 285 287 287 286 290 291 294 296
152 155 160 164 168 173 172 173 173 177 182 181 183 187 186 187 186 189 191 191 193 195 199 202 205 209 214 217 219 223 229 233 238 244 251 256 259 259 262 268 269 272 276 279 281 283 285 286 289 291 291 292 294 296
161 167 169 170 170 170 173 175 174 178 183 183 184 191 191 190 191 190 193 194 196 197 203 208 212 215 217 219 223 226 230 235 239 245 249 258 262 262 265 270 273 275 277 278 279 282 285 288 290 292 293 294 295 296
167 170 173 173 173 173 175 173 177 181 184 187 187 190 193 194 194 191 195 198 201 203 207 213 218 221 222 224 228 232 236 240 244 249 252 256 262 265 269 271 273 277 280 282 284 286 288 290 291 292 293 294 295 297
174 175 179 177 180 176 177 175 179 182 186 191 196 196 196 196 196 194 195 203 205 206 212 218 223 226 227 230 233 236 241 244 249 253 259 262 267 271 274 274 276 278 280 283 285 287 288 288 290 291 292 294 296 297
179 179 181 183 179 180 179 180 184 182 186 193 202 201 196 196 194 195 199 205 210 213 219 226 230 234 235 237 242 247 251 253 254 257 260 264 267 269 270 273 276 279 282 284 285 286 289 289 290 291 294 296 296 297
182 184 181 179 179 180 185 186 189 188 193 200 207 202 197 199 200 202 207 208 212 215 223 228 231 236 240 243 245 248 251 255 256 258 259 262 265 270 274 277 279 280 282 284 287 288 289 290 292 294 295 295 296 297
174 172 174 177 180 185 186 189 195 194 194 203 209 210 206 202 202 206 209 212 215 218 224 231 234 238 240 245 247 248 252 253 255 258 262 267 272 273 275 277 280 282 285 286 287 288 289 291 293 293 294 295 296 298
172 175 177 181 185 188 191 194 198 199 200 204 209 214 215 211 211 212 215 220 223 224 227 231 235 238 242 244 248 251 255 259 261 263 267 269 271 274 277 280 282 283 284 285 287 288 289 291 292 293 294 296 298 299
179 180 183 186 188 193 195 196 197 200 202 206 210 215 221 222 219 219 222 227 229 232 236 240 242 245 248 252 253 256 260 263 267 270 273 273 274 276 278 279 280 282 285 286 287 287 288 289 292 294 296 297 298 298
186 187 188 192 195 198 200 201 203 206 210 211 214 216 218 221 225 229 232 235 237 240 244 247 249 251 253 257 260 264 266 267 267 268 268 270 272 274 276 279 280 281 281 283 285 287 289 291 293 294 295 297 297 298
189 192 193 196 200 203 208 212 212 212 214 215 216 219 221 223 225 228 230 233 238 241 243 246 250 252 254 255 258 263 266 270 271 271 273 274 275 276 277 278 279 281 283 285 287 289 291 292 292 293 294 296 297 299
199 198 200 203 204 208 210 216 220 220 223 225 224 223 225 227 230 234 238 242 246 249 251 252 254 256 259 262 263 266 267 267 269 271 272 274 275 278 280 281 282 283 285 288 289 290 290 291 292 294 297 298 298 299
207 207 207 210 212 214 218 221 223 226 229 231 233 236 240 242 243 244 247 249 251 252 253 255 256 258 260 263 266 268 269 271 273 276 277 279 280 279 281 284 286 288 289 288 289 291 293 294 295 296 297 299 299 301
212 213 215 218 220 222 224 229 233 236 236 238 241 241 245 247 248 251 255 257 258 259 261 261 263 264 265 267 269 271 273 275 275 276 277 278 279 281 284 285 287 288 289 290 291 292 292 294 296 297 299 301 302 301
221 220 221 222 225 228 231 235 237 241 242 242 245 246 250 252 253 255 258 259 260 261 263 264 265 266 267 269 270 271 272 273 275 277 280 282 283 284 285 286 287 288 289 291 293 295 295 296 298 299 299 299 299 300
228 230 231 233 235 237 239 242 243 245 245 246 247 249 251 250 250 252 255 257 260 261 261 263 264 265 267 269 270 271 273 275 277 278 279 280 282 283 285 286 287 288 290 291 292 294 296 297 298 298 299 299 301 303
230 232 235 237 239 241 242 243 245 245 245 247 248 249 252 253 254 256 257 259 261 263 263 263 264 266 266 268 270 272 275 277 278 278 280 282 283 284 284 286 287 288 290 292 293 294 296 296 297 299 300 303 304 303
237 238 240 241 244 246 249 248 249 251 252 254 256 256 256 258 259 262 263 264 264 265 265 266 267 267 269 271 273 274 275 277 278 279 280 281 281 283 285 287 288 290 291 293 294 295 296 298 299 302 303 303 304 304
240 241 243 245 246 248 250 249 251 253 254 255 255 256 257 257 259 260 263 264 266 268 268 269 269 269 269 271 273 274 276 278 279 280 282 282 284 286 287 289 290 292 293 294 295 296 299 302 302 302 302 302 303 304
238 241 242 244 246 249 248 251 251 254 257 258 258 259 261 262 262 263 264 266 266 266 267 268 270 271 273 273 275 277 279 281 282 283 285 287 288 288 290 291 293 293 294 296 299 301 301 301 301 301 302 304 305 307
243 243 244 248 248 249 251 253 256 257 258 258 258 259 261 263 265 265 266 267 268 269 270 271 272 274 275 277 279 281 283 285 286 287 287 288 289 291 292 293 294 297 300 301 301 300 301 301 302 303 305 306 306 307
250 250 253 254 255 258 258 259 259 260 262 263 265 264 266 267 267 268 270 270 272 274 275 276 277 278 280 282 283 284 285 286 286 287 288 289 290 291 293 296 299 300 300 301 301 302 302 303 304 304 306 306 307 307
254 256 258 260 260 261 263 263 264 265 266 266 267 268 270 270 272 273 274 276 277 278 279 280 281 281 283 284 285 285 285 286 287 287 288 291 293 296 298 298 299 300 300 300 300 301 302 304 305 306 306 307 308 309
259 259 261 262 264 264 265 266 266 268 270 271 273 275 277 276 276 277 277 277 277 278 279 280 282 284 285 285 285 285 286 287 290 292 294 295 296 297 298 298 299 300 300 301 303 303 303 304 305 307 308 309 311 311
261 263 265 266 266 268 269 270 271 273 273 274 275 275 275 275 275 275 276 277 278 280 281 282 283 284 285 286 288 290 292 293 294 294 295 296 297 298 298 299 300 300 302 303 303 304 306 307 308 309 309 310 311 311
263 264 265 266 267 269 270 272 273 274 275 275 275 274 275 275 277 279 280 282 283 284 284 286 287 288 290 291 292 292 292 293 295 296 296 297 298 299 300 301 301 303 303 305 306 307 306 306 306 306 307 308 309 310
260 263 265 267 270 272 274 275 277 277 278 277 278 277 278 278 280 281 282 283 284 285 286 287 287 288 289 290 291 291 292 293 294 296 297 297 298 300 300 302 304 305 305 305 305 306 306 307 308 309 309 309 310 310
266 268 268 269 271 272 273 273 274 274 275 276 277 279 280 281 281 282 283 283 284 286 287 288 288 288 289 290 291 292 294 295 297 298 299 301 303 304 304 305 304 305 306 307 309 310 311 311 311 311 311 311 311 313
262 263 265 266 269 271 272 273 274 275 276 277 279 281 283 283 283 283 284 284 286 286 287 288 289 290 292 293 294 296 297 299 300 301 302 303 304 304 305 307 308 309 310 310 311 310 310 310 311 312 313 313 314 314
Height
10181 10195 10208 10220 10234 10248 10262 10276 10289 10302 10316 10328 10341 10355 10370 10383 10396 10408 10420 10431 10443 10452 10461 10472 10480 10488 10496 10503 10510 10515 10521 10525 10529 10532 10535 10537 10540 10541 10542 10542 10543 10545 10545 10544 10543 10540 10543 10540 10537 10534 10529 10526 10522 10517
10193 10205 10217 10230 10243 10255 10268 10280 10293 10305 10318 10330 10344 10357 10371 10383 10396 10407 10419 10432 10442 10450 10458 10466 10474 10483 10491 10499 10505 10510 10516 10519 10522 10525 10529 10532 10532 10534 10535 10534 10534 10535 10535 10533 10531 10530 10531 10530 10525 10520 10516 10513 10507 10502
10206 10217 10228 10241 10253 10262 10273 10285 10296 10309 10321 10333 10346 10360 10372 10383 10395 10405 10415 10424 10434 10443 10453 10462 10472 10479 10486 10493 10499 10505 10508 10512 10516 10520 10522 10523 10525 10525 10525 10526 10524 10523 10521 10522 10522 10519 10517 10515 10510 10507 10502 10496 10490 10485
10217 10227 10237 10248 10258 10267 10277 10290 10302 10315 10327 10338 10350 10362 10371 10382 10391 10401 10412 10425 10433 10442 10449 10458 10467 10475 10481 10487 10492 10497 10501 10506 10510 10512 10514 10516 10517 10516 10516 10515 10513 10510 10511 10512 10511 10506 10505 10498 10495 10490 10485 10480 10475 10469
10226 10235 10245 10254 10263 10273 10284 10295 10307 10318 10328 10340 10352 10361 10371 10380 10390 10400 10414 10423 10429 10439 10448 10455 10461 10468 10474 10480 10485 10490 10494 10498 10501 10503 10506 10508 10508 10508 10507 10506 10500 10499 10500 10501 10498 10494 10491 10485 10479 10474 10468 10463 10458 10451
10235 10243 10251 10260 10270 10279 10288 10298 10309 10321 10332 10344 10354 10365 10371 10380 10390 10402 10413 10423 10430 10437 10445 10452 10457 10462 10468 10473 10477 10482 10485 10488 10492 10495 10497 10498 10496 10498 10499 10495 10488 10486 10485 10485 10483 10479 10474 10471 10465 10459 10453 10446 10438 10431
10241 10248 10257 10266 10273 10281 10291 10302 10314 10324 10336 10348 10356 10364 10372 10381 10391 10401 10410 10418 10425 10432 10439 10445 10450 10456 10461 10465 10469 10473 10477 10480 10483 10485 10486 10486 10485 10486 10485 10481 10473 10471 10469 10469 10467 10462 10457 10453 10447 10441 10434 10426 10418 10411
10244 10253 10261 10269 10276 10285 10295 10306 10316 10326 10337 10347 10355 10362 10370 10379 10389 10398 10406 10414 10422 10429 10435 10440 10444 10447 10451 10456 10461 10464 10467 10471 10473 10475 10475 10475 10475 10472 10471 10461 10459 10456 10453 10452 10447 10444 10440 10435 10429 10422 10414 10406 10398 10389
10246 10254 10262 10271 10280 10290 10300 10309 10319 10327 10337 10345 10352 10361 10369 10378 10386 10394 10401 10409 10416 10422 10428 10431 10434 10438 10444 10446 10450 10454 10457 10460 10463 10464 10463 10463 10462 10458 10449 10446 10443 10441 10437 10434 10429 10425 10421 10415 10408 10400 10393 10385 10376 10368
10248 10257 10266 10275 10284 10294 10302 10311 10320 10327 10336 10343 10350 10358 10365 10373 10382 10390 10397 10404 10410 10414 10417 10420 10424 10428 10432 10436 10439 10443 10446 10449 10451 10449 10448 10448 10448 10437 10434 10431 10426 10422 10420 10418 10413 10406 10399 10392 10385 10378 10371 10362 10354 10346
10250 10258 10267 10277 10286 10294 10303 10311 10319 10326 10333 10341 10348 10356 10363 10371 10378 10385 10393 10399 10403 10406 10408 10409 10413 10416 10420 10424 10427 10431 10433 10434 10438 10437 10432 10436 10431 10420 10417 10412 10410 10406 10401 10396 10390 10384 10378 10372 10365 10357 10349 10341 10332 10322
10251 10260 10268 10278 10286 10293 10301 10310 10317 10325 10330 10338 10346 10353 10360 10367 10375 10383 10388 10391 10393 10394 10394 10396 10402 10407 10409 10412 10415 10418 10419 10423 10426 10422 10420 10418 10407 10402 10400 10397 10394 10388 10381 10374 10369 10363 10356 10349 10342 10334 10326 10317 10307 10296
10250 10258 10266 10276 10285 10293 10301 10308 10316 10323 10329 10337 10344 10350 10357 10364 10372 10376 10377 10377 10381 10383 10387 10390 10394 10397 10399 10400 10403 10404 10406 10408 10407 10409 10404 10394 10389 10387 10383 10379 10374 10368 10362 10355 10349 10341 10334 10326 10318 10309 10300 10291 10281 10272
10249 10258 10267 10275 10282 10290 10298 10305 10313 10320 10327 10333 10339 10346 10352 10359 10364 10364 10365 10368 10372 10375 10379 10381 10384 10386 10387 10389 10391 10390 10390 10389 10389 10384 10378 10375 10373 10369 10366 10362 10356 10349 10343 10336 10329 10321 10312 10304 10296 10287 10277 10266 10255 10244
10250 10259 10266 10275 10283 10290 10297 10303 10309 10316 10321 10326 10333 10340 10345 10348 10351 10354 10356 10357 10360 10363 10366 10367 10368 10370 10369 10370 10371 10370 10370 10371 10369 10365 10363 10359 10355 10350 10345 10340 10334 10327 10321 10313 10306 10298 10290 10282 10271 10261 10252 10241 10228 10216
10249 10257 10264 10271 10278 10285 10291 10297 10303 10308 10313 10320 10326 10331 10334 10338 10342 10345 10347 10349 10350 10353 10354 10355 10356 10356 10355 10355 10354 10352 10350 10350 10349 10347 10343 10339 10333 10328 10322 10315 10309 10303 10297 10290 10283 10275 10264 10254 10242 10231 10222 10213 10202 10191
10247 10253 10260 10266 10273 10279 10284 10289 10294 10299 10306 10311 10315 10319 10323 10327 10331 10333 10334 10335 10336 10337 10338 10339 10339 10338 10339 10338 10335 10332 10331 10328 10326 10324 10320 10315 10308 10301 10295 10291 10284 10277 10269 10261 10253 10244 10234 10224 10214 10204 10194 10184 10172 10161
10241 10248 10254 10260 10266 10271 10276 10281 10285 10291 10295 10300 10305 10309 10311 10314 10317 10318 10320 10321 10322 10322 10322 10322 10321 10320 10319 10317 10315 10314 10311 10307 10303 10298 10293 10288 10282 10276 10270 10264 10257 10248 10239 10230 10222 10213 10203 10195 10185 10175 10166 10156 10145 10133
10232 10239 10245 10251 10257 10262 10267 10271 10276 10280 10284 10288 10291 10295 10297 10299 10300 10302 10303 10304 10305 10304 10304 10302 10302 10299 10297 10296 10294 10291 10287 10282 10278 10274 10269 10264 10259 10252 10245 10238 10229 10220 10211 10202 10193 10184 10175 10165 10156 10147 10138 10128 10116 10106
10224 10230 10235 10241 10246 10250 10255 10259 10263 10265 10268 10271 10274 10277 10280 10282 10283 10284 10285 10286 10286 10285 10283 10282 10280 10278 10276 10274 10271 10268 10264 10259 10255 10250 10244 10238 10231 10224 10217 10209 10200 10192 10184 10174 10164 10156 10147 10138 10130 10120 10109 10100 10091 10081
10216 10220 10224 10229 10233 10237 10241 10244 10247 10250 10253 10255 10258 10261 10262 10263 10265 10266 10267 10267 10266 10264 10261 10261 10258 10256 10254 10250 10247 10243 10239 10236 10231 10225 10219 10213 10206 10198 10189 10181 10172 10163 10156 10147 10139 10131 10123 10112 10103 10093 10084 10075 10065 10056
10203 10207 10211 10215 10218 10222 10225 10228 10230 10233 10237 10239 10241 10242 10244 10245 10246 10246 10246 10245 10243 10241 10239 10237 10236 10233 10231 10227 10223 10218 10214 10209 10204 10197 10191 10184 10177 10170 10163 10155 10146 10138 10130 10121 10113 10104 10095 10086 10078 10071 10062 10052 10043 10034
10190 10194 10197 10201 10205 10208 10210 10213 10216 10218 10220 10220 10223 10224 10224 10225 10226 10226 10226 10223 10221 10220 10218 10216 10213 10210 10206 10201 10196 10193 10188 10182 10176 10171 10165 10158 10151 10145 10138 10130 10121 10114 10106 10096 10088 10080 10072 10065 10057 10049 10041 10032 10024 10016
10175 10179 10182 10186 10189 10191 10193 10195 10197 10199 10200 10202 10203 10204 10204 10205 10206 10205 10205 10201 10198 10195 10193 10190 10187 10184 10180 10177 10172 10166 10161 10157 10151 10145 10139 10133 10125 10118 10112 10105 10096 10089 10081 10073 10066 10059 10052 10044 10037 10029 10022 10013 10005 9997
10159 10162 10165 10168 10170 10173 10175 10178 10179 10181 10182 10183 10184 10183 10182 10183 10183 10184 10181 10176 10173 10172 10169 10166 10163 10160 10156 10152 10148 10142 10136 10131 10125 10120 10115 10108 10101 10094 10088 10081 10074 10068 10060 10053 10045 10038 10031 10024 10017 10009 10003 9996 9987 9980
10144 10147 10148 10152 10153 10154 10158 10159 10160 10160 10161 10162 10162 10161 10160 10160 10160 10160 10156 10153 10151 10148 10146 10143 10140 10136 10131 10126 10122 10117 10113 10108 10103 10097 10091 10085 10079 10073 10066 10060 10054 10049 10042 10035 10026 10018 10011 10005 9998 9990 9984 9978 9971 9964
10129 10132 10134 10136 10137 10138 10139 10140 10140 10141 10141 10141 10141 10140 10140 10140 10139 10137 10135 10132 10128 10124 10120 10118 10114 10111 10108 10104 10100 10095 10090 10086 10081 10075 10070 10064 10058 10053 10046 10040 10034 10029 10024 10017 10011 10003 9995 9987 9980 9973 9967 9961 9955 9947
10115 10118 10118 10119 10119 10121 10120 10122 10123 10123 10122 10121 10122 10120 10119 10117 10116 10113 10111 10109 10106 10103 10101 10097 10093 10089 10086 10082 10078 10074 10069 10064 10060 10055 10050 10044 10039 10034 10029 10023 10017 10011 10005 9999 9993 9986 9980 9973 9965 9958 9951 9944 9937 9930
10099 10101 10102 10100 10102 10102 10103 10103 10103 10103 10102 10102 10102 10100 10099 10096 10095 10094 10091 10089 10086 10083 10080 10076 10072 10068 10065 10062 10057 10053 10049 10045 10040 10036 10031 10026 10022 10016 10011 10006 10000 9994 9988 9983 9978 9971 9964 9957 9950 9943 9936 9930 9923 9916
10084 10085 10085 10085 10085 10085 10085 10086 10086 10085 10085 10084 10083 10082 10080 10078 10076 10073 10071 10069 10066 10063 10060 10057 10053 10051 10047 10043 10040 10036 10031 10027 10022 10018 10014 10009 10004 9999 9994 9989 9983 9978 9972 9966 9961 9956 9950 9945 9938 9931 9924 9918 9911 9905
10071 10071 10072 10071 10071 10071 10071 10070 10070 10069 10067 10066 10065 10064 10062 10061 10059 10057 10055 10052 10050 10047 10044 10040 10037 10034 10030 10027 10023 10019 10015 10011 10006 10002 9998 9993 9988 9984 9979 9973 9968 9962 9957 9952 9946 9941 9936 9930 9924 9918 9912 9906 9900 9894
10059 10058 10058 10058 10058 10058 10057 10056 10055 10053 10052 10052 10051 10050 10049 10048 10045 10043 10040 10037 10034 10031 10028 10025 10022 10018 10014 10010 10007 10003 9998 9994 9990 9986 9981 9976 9972 9967 9962 9958 9953 9948 9942 9936 9931 9925 9919 9914 9909 9904 9898 9893 9887 9881
10049 10048 10048 10048 10048 10047 10046 10045 10043 10042 10040 10039 10038 10038 10037 10034 10031 10028 10025 10022 10020 10017 10014 10010 10006 10003 9999 9995 9991 9987 9983 9978 9974 9969 9965 9961 9956 9952 9947 9943 9938 9932 9926 9921 9916 9911 9906 9901 9896 9891 9885 9880 9875 9869